Burlington, IA

8:56 PM CDT on May 22, 2017 (GMT -0500)
Burlington Regional

Weather History for KBRL - January, 2013

Change the Weather History Date:

Monday, January 7, 2013

  Actual Average Record
Temperature  
Mean Temperature 30 °F 26 °F  
Max Temperature 41 °F 34 °F 65 °F (2008)
Min Temperature 18 °F 17 °F -17 °F (1912)
Degree Days  
Heating Degree Days 35 39  
Month to date heating degree days 291 273  
Since 1 July heating degree days 2484 2459  
Cooling Degree Days 0 0  
Month to date cooling degree days 0 0  
Year to date cooling degree days 0 0  
Moisture  
Dew Point 22 °F    
Average Humidity 73    
Maximum Humidity 91    
Minimum Humidity 54    
Precipitation  
Precipitation 0.00 in 0.04 in 0.18 in (2008)
Month to date precipitation 0.03 0.30  
Year to date precipitation 0.03 0.30  
Sea Level Pressure  
Sea Level Pressure 30.20 in    
Wind  
Wind Speed 11 mph (SSW)    
Max Wind Speed 22 mph    
Max Gust Speed 28 mph    
Visibility 10 miles    
Events      
T = Trace of Precipitation, MM = Missing Value Source: NWS Daily Summary

Daily Weather History Graph

Daily Weather History Graph

Search for Another Location

Airport or City:

Trip Planner

Search our weather history database for the weather conditions in past years. The results will help you decide how hot, cold, wet, or windy it might be!

Date:

Astronomy

Jan. 07, 2013 Rise Set
Actual Time 7:28 AM CST 4:53 PM CST
Civil Twilight 6:58 AM CST 5:24 PM CST
Nautical Twilight 6:23 AM CST 5:58 PM CST
Astronomical Twilight 5:50 AM CST 6:31 PM CST
Moon 2:52 AM CST (1/7) 1:04 PM CST (1/7)
Length of Visible Light 10h 25m
Length of Day
9h 24m
Waning Crescent, 22% of the Moon is Illuminated
Jan 7
Waning Crescent
Jan 11
New
Jan 18
First Quarter
Jan 26
Full
Feb 3
Last Quarter

Hourly Weather History & Observations

Time (CST) Temp. Windchill Dew Point Humidity Pressure Visibility Wind Dir Wind Speed Gust Speed Precip Events Conditions
12:53 AM 19.9 °F 13.4 °F 15.1 °F 81% 30.32 in 10.0 mi South 4.6 mph - N/A   Clear
1:53 AM 19.0 °F 10.0 °F 15.1 °F 85% 30.33 in 10.0 mi South 6.9 mph - N/A   Clear
2:53 AM 21.0 °F 14.6 °F 17.1 °F 85% 30.33 in 10.0 mi SSW 4.6 mph - N/A   Clear
3:53 AM 19.9 °F 10.1 °F 17.1 °F 89% 30.32 in 10.0 mi South 8.1 mph - N/A   Clear
4:53 AM 21.9 °F 11.7 °F 18.0 °F 85% 30.31 in 10.0 mi South 9.2 mph - N/A   Clear
5:53 AM 23.0 °F 11.7 °F 18.0 °F 81% 30.30 in 10.0 mi South 11.5 mph - N/A   Clear
6:53 AM 23.0 °F 11.7 °F 18.0 °F 81% 30.29 in 10.0 mi South 11.5 mph - N/A   Clear
7:53 AM 24.1 °F 12.5 °F 19.0 °F 81% 30.29 in 10.0 mi SSW 12.7 mph - N/A   Clear
8:53 AM 27.0 °F 14.7 °F 19.9 °F 75% 30.27 in 10.0 mi SSW 16.1 mph - N/A   Clear
9:53 AM 30.9 °F 19.4 °F 21.9 °F 69% 30.27 in 10.0 mi SSW 17.3 mph 23.0 mph N/A   Clear
10:53 AM 35.1 °F 25.9 °F 24.1 °F 64% 30.24 in 10.0 mi SSW 13.8 mph 27.6 mph N/A   Clear
11:53 AM 37.9 °F 28.2 °F 24.1 °F 57% 30.19 in 10.0 mi SSW 18.4 mph 27.6 mph N/A   Clear
12:53 PM 39.2 °F 29.8 °F 24.8 °F 56% 30.13 in 10.0 mi SSW 18.4 mph 24.2 mph N/A   Clear
1:53 PM 39.9 °F 31.4 °F 25.0 °F 55% 30.15 in 10.0 mi SSW 16.1 mph - N/A   Clear
2:53 PM 39.9 °F 31.1 °F 26.1 °F 58% 30.13 in 10.0 mi South 17.3 mph 25.3 mph N/A   Clear
3:53 PM 39.0 °F 31.4 °F 26.1 °F 60% 30.12 in 10.0 mi SSW 12.7 mph - N/A   Clear
4:53 PM 37.0 °F 28.5 °F 26.1 °F 65% 30.11 in 10.0 mi SSW 13.8 mph - N/A   Clear
5:53 PM 37.0 °F 31.0 °F 26.1 °F 65% 30.12 in 10.0 mi SSW 8.1 mph - N/A   Clear
6:53 PM 34.0 °F 29.8 °F 27.0 °F 75% 30.11 in 10.0 mi SSW 4.6 mph - N/A   Clear
7:53 PM 33.1 °F 28.7 °F 26.1 °F 75% 30.11 in 10.0 mi South 4.6 mph - N/A   Clear
8:53 PM 30.9 °F 24.3 °F 26.1 °F 82% 30.11 in 10.0 mi South 6.9 mph - N/A   Clear
9:53 PM 30.9 °F 23.5 °F 25.0 °F 79% 30.10 in 10.0 mi South 8.1 mph - N/A   Clear
10:53 PM 30.9 °F 25.2 °F 26.1 °F 82% 30.11 in 10.0 mi South 5.8 mph - N/A   Clear
11:53 PM 33.1 °F 26.9 °F 26.1 °F 75% 30.09 in 10.0 mi SSW 6.9 mph - N/A   Clear